STARLINK F

Last updated on Jan. 16, 2020, 12:02 a.m. UTC

1 44919U 20001F   20015.58334491  .00098091  00000-0  52498-3 0  9993
2 44919  53.0008 354.9277 0001115 103.7904 240.8045 15.79576226  1345

Satellite is not in orbit.